Time,TemperatureF,DewpointF,PressureIn,WindDirection,WindDirectionDegrees,WindSpeedMPH,WindSpeedGustMPH,Humidity,HourlyPrecipIn,Conditions,Clouds,dailyrainin,SoftwareType,DateUTC
2013-08-14 00:01:00,61.2,61.2,29.88,NW,309,1.0,4.0,100,0.00,,---,0.00,VWS V14.01,2013-08-14 04:01:00,
2013-08-14 00:06:00,61.2,61.2,29.88,WNW,287,1.0,2.0,100,0.00,,---,0.00,VWS V14.01,2013-08-14 04:06:00,
2013-08-14 00:11:00,61.2,61.2,29.89,WNW,297,2.0,2.0,100,0.00,,---,0.00,VWS V14.01,2013-08-14 04:11:00,
2013-08-14 00:16:00,61.1,61.1,29.89,WNW,297,0.0,1.0,100,0.00,,---,0.00,VWS V14.01,2013-08-14 04:16:00,
2013-08-14 00:21:00,61.0,61.0,29.88,WNW,297,0.0,2.0,100,0.00,,---,0.00,VWS V14.01,2013-08-14 04:21:00,
2013-08-14 00:26:00,60.9,60.9,29.89,WNW,297,0.0,1.0,100,0.00,,---,0.00,VWS V14.01,2013-08-14 04:26:00,
2013-08-14 00:31:00,60.9,60.9,29.89,WNW,297,0.0,0.0,100,0.00,,---,0.00,VWS V14.01,2013-08-14 04:31:00,
2013-08-14 00:36:00,60.7,60.7,29.88,WNW,297,0.0,0.0,100,0.00,,---,0.00,VWS V14.01,2013-08-14 04:36:00,
2013-08-14 00:41:00,60.7,60.7,29.88,WNW,297,0.0,1.0,100,0.00,,---,0.00,VWS V14.01,2013-08-14 04:41:00,
2013-08-14 00:46:00,60.6,60.6,29.89,WNW,297,0.0,1.0,100,0.00,,---,0.00,VWS V14.01,2013-08-14 04:46:00,
2013-08-14 00:51:00,60.7,60.7,29.88,WNW,297,0.0,1.0,100,0.00,,---,0.00,VWS V14.01,2013-08-14 04:51:00,
2013-08-14 00:56:00,60.6,60.6,29.89,WNW,297,1.0,1.0,100,0.00,,---,0.00,VWS V14.01,2013-08-14 04:56:00,
2013-08-14 01:01:00,60.5,60.5,29.89,WNW,297,0.0,1.0,100,0.00,,---,0.00,VWS V14.01,2013-08-14 05:01:00,
2013-08-14 01:06:00,60.6,60.6,29.88,WNW,297,2.0,2.0,100,0.00,,---,0.00,VWS V14.01,2013-08-14 05:06:00,
2013-08-14 01:11:00,60.5,60.5,29.88,NW,304,1.0,3.0,100,0.00,,---,0.00,VWS V14.01,2013-08-14 05:11:00,
2013-08-14 01:16:00,60.7,60.7,29.88,WNW,296,1.0,2.0,100,0.00,,---,0.00,VWS V14.01,2013-08-14 05:16:00,
2013-08-14 01:21:00,60.7,60.7,29.88,WNW,300,2.0,2.0,100,0.00,,---,0.00,VWS V14.01,2013-08-14 05:21:00,
2013-08-14 01:26:00,60.8,60.8,29.88,WNW,301,0.0,2.0,100,0.00,,---,0.00,VWS V14.01,2013-08-14 05:26:00,
2013-08-14 01:31:00,60.7,60.7,29.88,WNW,301,2.0,2.0,100,0.00,,---,0.00,VWS V14.01,2013-08-14 05:31:00,
2013-08-14 01:36:00,60.7,60.7,29.88,WNW,300,0.0,1.0,100,0.00,,---,0.00,VWS V14.01,2013-08-14 05:36:00,
2013-08-14 01:41:00,60.8,60.8,29.89,WNW,299,1.0,1.0,100,0.00,,---,0.00,VWS V14.01,2013-08-14 05:41:00,
2013-08-14 01:46:00,60.9,60.9,29.89,WNW,299,0.0,1.0,100,0.00,,---,0.00,VWS V14.01,2013-08-14 05:46:00,
2013-08-14 01:51:00,61.0,61.0,29.89,WNW,299,0.0,2.0,100,0.00,,---,0.00,VWS V14.01,2013-08-14 05:51:00,
2013-08-14 01:56:00,60.9,60.9,29.89,WNW,299,1.0,1.0,100,0.00,,---,0.00,VWS V14.01,2013-08-14 05:56:00,
2013-08-14 02:01:00,60.9,60.9,29.88,WNW,299,0.0,2.0,100,0.00,,---,0.00,VWS V14.01,2013-08-14 06:01:00,
2013-08-14 02:06:00,60.9,60.9,29.88,WNW,299,0.0,0.0,100,0.00,,---,0.00,VWS V14.01,2013-08-14 06:06:00,
2013-08-14 02:11:00,60.6,60.6,29.88,WNW,299,0.0,0.0,100,0.00,,---,0.00,VWS V14.01,2013-08-14 06:11:00,
2013-08-14 02:16:00,60.5,60.5,29.88,WNW,299,0.0,1.0,100,0.00,,---,0.00,VWS V14.01,2013-08-14 06:16:00,
2013-08-14 02:21:00,60.2,60.2,29.88,WNW,299,0.0,1.0,100,0.00,,---,0.00,VWS V14.01,2013-08-14 06:21:00,
2013-08-14 02:26:00,60.2,60.2,29.88,WNW,299,1.0,1.0,100,0.00,,---,0.00,VWS V14.01,2013-08-14 06:26:00,
2013-08-14 02:31:00,60.0,60.0,29.88,WNW,299,0.0,2.0,100,0.00,,---,0.00,VWS V14.01,2013-08-14 06:31:00,
2013-08-14 02:36:00,59.9,59.9,29.88,WNW,299,1.0,1.0,100,0.00,,---,0.00,VWS V14.01,2013-08-14 06:36:00,
2013-08-14 02:41:00,59.9,59.9,29.88,WNW,299,0.0,1.0,100,0.00,,---,0.00,VWS V14.01,2013-08-14 06:41:00,
2013-08-14 02:46:00,59.9,59.9,29.88,WNW,299,0.0,1.0,100,0.00,,---,0.00,VWS V14.01,2013-08-14 06:46:00,
2013-08-14 02:51:00,59.9,59.9,29.87,WNW,299,1.0,1.0,100,0.00,,---,0.00,VWS V14.01,2013-08-14 06:51:00,
2013-08-14 02:56:00,60.1,60.1,29.87,WNW,299,2.0,2.0,100,0.00,,---,0.00,VWS V14.01,2013-08-14 06:56:00,
2013-08-14 03:01:00,60.4,60.4,29.87,WNW,299,0.0,1.0,100,0.00,,---,0.00,VWS V14.01,2013-08-14 07:01:00,
2013-08-14 03:06:00,60.5,60.5,29.87,WNW,297,1.0,3.0,100,0.00,,---,0.00,VWS V14.01,2013-08-14 07:06:00,
2013-08-14 03:11:00,60.6,60.6,29.87,WNW,297,2.0,2.0,100,0.00,,---,0.00,VWS V14.01,2013-08-14 07:11:00,
2013-08-14 03:16:00,60.5,60.5,29.87,WNW,297,1.0,2.0,100,0.00,,---,0.00,VWS V14.01,2013-08-14 07:16:00,
2013-08-14 03:21:00,60.5,60.5,29.87,WNW,297,1.0,2.0,100,0.00,,---,0.00,VWS V14.01,2013-08-14 07:21:00,
2013-08-14 03:26:00,60.6,60.6,29.87,WNW,301,1.0,2.0,100,0.00,,---,0.00,VWS V14.01,2013-08-14 07:26:00,
2013-08-14 03:31:00,60.7,60.7,29.87,West,274,4.0,4.0,100,0.00,,---,0.00,VWS V14.01,2013-08-14 07:31:00,
2013-08-14 03:36:00,60.7,60.7,29.87,WNW,295,2.0,3.0,100,0.00,,---,0.00,VWS V14.01,2013-08-14 07:36:00,
2013-08-14 03:41:00,60.7,60.7,29.87,West,274,2.0,3.0,100,0.00,,---,0.00,VWS V14.01,2013-08-14 07:41:00,
2013-08-14 03:46:00,60.8,60.8,29.87,WNW,297,2.0,2.0,100,0.00,,---,0.00,VWS V14.01,2013-08-14 07:46:00,
2013-08-14 03:51:00,60.8,60.8,29.87,West,261,1.0,2.0,100,0.00,,---,0.00,VWS V14.01,2013-08-14 07:51:00,
2013-08-14 03:56:00,60.8,60.8,29.88,NW,309,1.0,1.0,100,0.00,,---,0.00,VWS V14.01,2013-08-14 07:56:00,
2013-08-14 04:01:00,60.8,60.8,29.87,WNW,293,1.0,3.0,100,0.00,,---,0.00,VWS V14.01,2013-08-14 08:01:00,
2013-08-14 04:06:00,60.7,60.7,29.87,West,275,2.0,3.0,100,0.00,,---,0.00,VWS V14.01,2013-08-14 08:06:00,
2013-08-14 04:11:00,60.6,60.6,29.87,WNW,294,3.0,5.0,100,0.00,,---,0.00,VWS V14.01,2013-08-14 08:11:00,
2013-08-14 04:16:00,60.6,60.6,29.87,NNW,329,0.0,5.0,100,0.00,,---,0.00,VWS V14.01,2013-08-14 08:16:00,
2013-08-14 04:21:00,60.6,60.6,29.87,WNW,303,1.0,2.0,100,0.00,,---,0.00,VWS V14.01,2013-08-14 08:21:00,
2013-08-14 04:26:00,60.6,60.6,29.87,WNW,296,1.0,2.0,100,0.00,,---,0.00,VWS V14.01,2013-08-14 08:26:00,
2013-08-14 04:31:00,60.6,60.6,29.87,West,266,1.0,3.0,100,0.01,,---,0.01,VWS V14.01,2013-08-14 08:31:00,
2013-08-14 04:36:00,60.6,60.6,29.87,West,272,1.0,3.0,100,0.01,,---,0.01,VWS V14.01,2013-08-14 08:36:00,
2013-08-14 04:41:00,60.7,60.7,29.87,NW,318,2.0,6.0,100,0.01,,---,0.01,VWS V14.01,2013-08-14 08:41:00,
2013-08-14 04:46:00,60.7,60.7,29.87,WNW,297,1.0,4.0,100,0.01,,---,0.01,VWS V14.01,2013-08-14 08:46:00,
2013-08-14 04:51:00,60.7,60.7,29.87,West,266,3.0,4.0,100,0.01,,---,0.01,VWS V14.01,2013-08-14 08:51:00,
2013-08-14 04:56:00,60.7,60.7,29.87,WNW,291,0.0,2.0,100,0.01,,---,0.01,VWS V14.01,2013-08-14 08:56:00,
2013-08-14 05:01:00,60.7,60.7,29.87,NW,316,1.0,4.0,100,0.01,,---,0.01,VWS V14.01,2013-08-14 09:01:00,
2013-08-14 05:06:00,60.4,60.4,29.87,WSW,251,3.0,4.0,100,0.01,,---,0.01,VWS V14.01,2013-08-14 09:06:00,
2013-08-14 05:11:00,60.4,60.4,29.87,West,262,1.0,3.0,100,0.01,,---,0.01,VWS V14.01,2013-08-14 09:11:00,
2013-08-14 05:16:00,60.3,60.3,29.87,NW,310,3.0,4.0,100,0.01,,---,0.01,VWS V14.01,2013-08-14 09:16:00,
2013-08-14 05:21:00,60.3,60.3,29.87,West,266,2.0,5.0,100,0.01,,---,0.01,VWS V14.01,2013-08-14 09:21:00,
2013-08-14 05:26:00,60.3,60.3,29.87,WNW,287,2.0,2.0,100,0.01,,---,0.01,VWS V14.01,2013-08-14 09:26:00,
2013-08-14 05:31:00,60.0,60.0,29.87,WNW,293,2.0,2.0,100,0.00,,---,0.01,VWS V14.01,2013-08-14 09:31:00,
2013-08-14 05:36:00,60.2,60.2,29.87,WNW,293,2.0,3.0,100,0.00,,---,0.01,VWS V14.01,2013-08-14 09:36:00,
2013-08-14 05:41:00,60.2,60.2,29.87,WNW,288,1.0,2.0,100,0.00,,---,0.01,VWS V14.01,2013-08-14 09:41:00,
2013-08-14 05:46:00,60.0,60.0,29.87,NNW,331,4.0,4.0,100,0.00,,---,0.01,VWS V14.01,2013-08-14 09:46:00,
2013-08-14 05:51:00,59.9,59.9,29.87,WNW,297,2.0,2.0,100,0.00,,---,0.01,VWS V14.01,2013-08-14 09:51:00,
2013-08-14 05:56:00,59.8,59.8,29.87,WNW,289,1.0,2.0,100,0.00,,---,0.01,VWS V14.01,2013-08-14 09:56:00,
2013-08-14 06:01:00,59.7,59.7,29.87,WNW,284,2.0,3.0,100,0.00,,---,0.01,VWS V14.01,2013-08-14 10:01:00,
2013-08-14 06:06:00,59.7,59.7,29.88,WNW,299,1.0,3.0,100,0.00,,---,0.01,VWS V14.01,2013-08-14 10:06:00,
2013-08-14 06:11:00,59.7,59.7,29.88,NW,316,2.0,2.0,100,0.00,,---,0.01,VWS V14.01,2013-08-14 10:11:00,
2013-08-14 06:16:00,59.8,59.8,29.88,West,280,1.0,1.0,100,0.00,,---,0.01,VWS V14.01,2013-08-14 10:16:00,
2013-08-14 06:21:00,59.8,59.8,29.88,West,261,3.0,3.0,100,0.00,,---,0.01,VWS V14.01,2013-08-14 10:21:00,
2013-08-14 06:26:00,59.7,59.7,29.88,WNW,301,2.0,3.0,100,0.00,,---,0.01,VWS V14.01,2013-08-14 10:26:00,
2013-08-14 06:31:00,59.7,59.7,29.88,WNW,297,1.0,4.0,100,0.00,,---,0.01,VWS V14.01,2013-08-14 10:31:00,
2013-08-14 06:36:00,59.7,59.7,29.89,WNW,292,3.0,4.0,100,0.00,,---,0.01,VWS V14.01,2013-08-14 10:36:00,
2013-08-14 06:41:00,59.6,59.6,29.89,WNW,287,0.0,2.0,100,0.00,,---,0.01,VWS V14.01,2013-08-14 10:41:00,
2013-08-14 06:46:00,59.4,59.4,29.89,West,276,2.0,2.0,100,0.00,,---,0.01,VWS V14.01,2013-08-14 10:46:00,
2013-08-14 06:51:00,59.4,59.4,29.90,WNW,293,1.0,4.0,100,0.00,,---,0.01,VWS V14.01,2013-08-14 10:51:00,
2013-08-14 06:56:00,59.3,59.3,29.90,West,280,1.0,3.0,100,0.00,,---,0.01,VWS V14.01,2013-08-14 10:56:00,
2013-08-14 07:01:00,59.3,59.3,29.91,WNW,299,2.0,4.0,100,0.00,,---,0.01,VWS V14.01,2013-08-14 11:01:00,
2013-08-14 07:06:00,59.4,59.4,29.91,WNW,295,2.0,3.0,100,0.00,,---,0.01,VWS V14.01,2013-08-14 11:06:00,
2013-08-14 07:11:00,59.3,59.3,29.91,WNW,302,1.0,2.0,100,0.00,,---,0.01,VWS V14.01,2013-08-14 11:11:00,
2013-08-14 07:16:00,59.3,59.3,29.91,West,278,1.0,4.0,100,0.00,,---,0.01,VWS V14.01,2013-08-14 11:16:00,
2013-08-14 07:21:00,59.3,59.3,29.91,WNW,299,3.0,3.0,100,0.00,,---,0.01,VWS V14.01,2013-08-14 11:21:00,
2013-08-14 07:26:00,59.1,59.1,29.92,WNW,289,3.0,4.0,100,0.00,,---,0.01,VWS V14.01,2013-08-14 11:26:00,
2013-08-14 07:31:00,59.0,59.0,29.92,WNW,286,1.0,2.0,100,0.00,,---,0.01,VWS V14.01,2013-08-14 11:31:00,
2013-08-14 07:36:00,59.0,59.0,29.92,NW,312,3.0,4.0,100,0.00,,---,0.01,VWS V14.01,2013-08-14 11:36:00,
2013-08-14 07:41:00,59.2,59.2,29.92,WNW,299,0.0,2.0,100,0.00,,---,0.01,VWS V14.01,2013-08-14 11:41:00,
2013-08-14 07:46:00,59.2,59.2,29.92,NW,304,2.0,3.0,100,0.00,,---,0.01,VWS V14.01,2013-08-14 11:46:00,
2013-08-14 07:51:00,59.3,59.3,29.92,WNW,289,2.0,2.0,100,0.00,,---,0.01,VWS V14.01,2013-08-14 11:51:00,
2013-08-14 07:56:00,59.4,59.4,29.92,WNW,289,1.0,1.0,100,0.00,,---,0.01,VWS V14.01,2013-08-14 11:56:00,
2013-08-14 08:01:00,59.2,59.2,29.92,WNW,289,3.0,3.0,100,0.00,,---,0.01,VWS V14.01,2013-08-14 12:01:00,
2013-08-14 08:06:00,59.0,59.0,29.92,WNW,299,1.0,3.0,100,0.00,,---,0.01,VWS V14.01,2013-08-14 12:06:00,
2013-08-14 08:11:00,59.0,59.0,29.93,WNW,299,2.0,2.0,100,0.00,,---,0.01,VWS V14.01,2013-08-14 12:11:00,
2013-08-14 08:16:00,59.3,59.3,29.93,WNW,299,0.0,1.0,100,0.00,,---,0.01,VWS V14.01,2013-08-14 12:16:00,
2013-08-14 08:21:00,59.2,59.2,29.93,WNW,299,0.0,2.0,100,0.00,,---,0.01,VWS V14.01,2013-08-14 12:21:00,
2013-08-14 08:26:00,59.2,59.2,29.93,WNW,299,1.0,1.0,100,0.00,,---,0.01,VWS V14.01,2013-08-14 12:26:00,
2013-08-14 08:31:00,59.2,59.2,29.93,WNW,299,1.0,1.0,100,0.00,,---,0.01,VWS V14.01,2013-08-14 12:31:00,
2013-08-14 08:36:00,59.2,59.2,29.94,WNW,298,1.0,2.0,100,0.00,,---,0.01,VWS V14.01,2013-08-14 12:36:00,
2013-08-14 08:41:00,59.6,59.6,29.94,WNW,298,0.0,1.0,100,0.00,,---,0.01,VWS V14.01,2013-08-14 12:41:00,
2013-08-14 08:46:00,59.6,59.6,29.94,WNW,298,0.0,1.0,100,0.00,,---,0.01,VWS V14.01,2013-08-14 12:46:00,
2013-08-14 08:51:00,59.7,59.7,29.94,WNW,298,0.0,1.0,100,0.00,,---,0.01,VWS V14.01,2013-08-14 12:51:00,
2013-08-14 08:56:00,60.0,60.0,29.94,WNW,298,0.0,1.0,100,0.00,,---,0.01,VWS V14.01,2013-08-14 12:56:00,
2013-08-14 09:01:00,60.2,60.2,29.94,WNW,298,0.0,1.0,100,0.00,,---,0.01,VWS V14.01,2013-08-14 13:01:00,
2013-08-14 09:06:00,59.9,59.9,29.94,WNW,298,0.0,2.0,100,0.00,,---,0.01,VWS V14.01,2013-08-14 13:06:00,
2013-08-14 09:11:00,59.9,59.9,29.94,WNW,298,2.0,3.0,100,0.00,,---,0.01,VWS V14.01,2013-08-14 13:11:00,
2013-08-14 09:16:00,59.9,59.9,29.94,WNW,301,2.0,3.0,100,0.00,,---,0.01,VWS V14.01,2013-08-14 13:16:00,
2013-08-14 09:21:00,60.3,60.3,29.94,WNW,297,1.0,3.0,100,0.00,,---,0.01,VWS V14.01,2013-08-14 13:21:00,
2013-08-14 09:26:00,60.4,60.4,29.94,WNW,297,2.0,2.0,100,0.00,,---,0.01,VWS V14.01,2013-08-14 13:26:00,
2013-08-14 09:31:00,60.5,60.5,29.94,WNW,297,1.0,1.0,100,0.00,,---,0.01,VWS V14.01,2013-08-14 13:31:00,
2013-08-14 09:36:00,60.7,60.7,29.94,WNW,296,0.0,1.0,100,0.00,,---,0.01,VWS V14.01,2013-08-14 13:36:00,
2013-08-14 09:41:00,60.8,60.8,29.94,WNW,296,0.0,1.0,100,0.00,,---,0.01,VWS V14.01,2013-08-14 13:41:00,
2013-08-14 09:46:00,61.1,61.1,29.94,WNW,296,1.0,1.0,100,0.00,,---,0.01,VWS V14.01,2013-08-14 13:46:00,
2013-08-14 09:51:00,61.4,61.4,29.94,WNW,296,0.0,1.0,100,0.00,,---,0.01,VWS V14.01,2013-08-14 13:51:00,
2013-08-14 09:56:00,61.2,61.2,29.94,WNW,296,0.0,1.0,100,0.00,,---,0.01,VWS V14.01,2013-08-14 13:56:00,
2013-08-14 10:01:00,61.2,61.2,29.94,WNW,296,1.0,1.0,100,0.00,,---,0.01,VWS V14.01,2013-08-14 14:01:00,
2013-08-14 10:06:00,61.3,61.3,29.94,WNW,296,2.0,2.0,100,0.00,,---,0.01,VWS V14.01,2013-08-14 14:06:00,
2013-08-14 10:11:00,61.3,61.3,29.95,WNW,296,0.0,1.0,100,0.00,,---,0.01,VWS V14.01,2013-08-14 14:11:00,
2013-08-14 10:16:00,61.7,61.7,29.94,WNW,296,0.0,1.0,100,0.00,,---,0.01,VWS V14.01,2013-08-14 14:16:00,
2013-08-14 10:21:00,61.9,61.9,29.94,WNW,296,1.0,1.0,100,0.00,,---,0.01,VWS V14.01,2013-08-14 14:21:00,
2013-08-14 10:26:00,61.9,61.9,29.94,WNW,296,0.0,1.0,100,0.00,,---,0.01,VWS V14.01,2013-08-14 14:26:00,
2013-08-14 10:31:00,62.2,62.2,29.95,WNW,296,0.0,1.0,100,0.00,,---,0.01,VWS V14.01,2013-08-14 14:31:00,
2013-08-14 10:36:00,62.6,62.6,29.95,WNW,296,0.0,0.0,100,0.00,,---,0.01,VWS V14.01,2013-08-14 14:36:00,
2013-08-14 10:41:00,63.1,63.1,29.95,WNW,296,0.0,2.0,100,0.00,,---,0.01,VWS V14.01,2013-08-14 14:41:00,
2013-08-14 10:46:00,63.8,63.2,29.95,WSW,245,0.0,1.0,98,0.00,,---,0.01,VWS V14.01,2013-08-14 14:46:00,
2013-08-14 10:51:00,64.6,63.7,29.95,WNW,288,1.0,1.0,97,0.00,,---,0.01,VWS V14.01,2013-08-14 14:51:00,
2013-08-14 10:56:00,64.8,62.7,29.96,WNW,288,1.0,2.0,93,0.00,,---,0.01,VWS V14.01,2013-08-14 14:56:00,
2013-08-14 11:01:00,64.8,62.7,29.96,WNW,288,0.0,1.0,93,0.00,,---,0.01,VWS V14.01,2013-08-14 15:01:00,
2013-08-14 11:06:00,65.8,63.4,29.96,WNW,288,0.0,1.0,92,0.00,,---,0.01,VWS V14.01,2013-08-14 15:06:00,
2013-08-14 11:11:00,67.0,63.7,29.96,WNW,288,0.0,2.0,89,0.00,,---,0.01,VWS V14.01,2013-08-14 15:11:00,
2013-08-14 11:16:00,66.8,63.5,29.96,WNW,289,1.0,2.0,89,0.00,,---,0.01,VWS V14.01,2013-08-14 15:16:00,
2013-08-14 11:21:00,68.2,65.8,29.95,WNW,288,1.0,1.0,92,0.00,,---,0.01,VWS V14.01,2013-08-14 15:21:00,
2013-08-14 11:26:00,68.1,63.8,29.95,WNW,286,0.0,1.0,86,0.00,,---,0.01,VWS V14.01,2013-08-14 15:26:00,
2013-08-14 11:31:00,67.0,62.0,29.95,WNW,286,0.0,2.0,84,0.00,,---,0.01,VWS V14.01,2013-08-14 15:31:00,
2013-08-14 11:36:00,66.3,62.0,29.96,WNW,286,1.0,1.0,86,0.00,,---,0.01,VWS V14.01,2013-08-14 15:36:00,
2013-08-14 11:41:00,66.0,62.3,29.96,WNW,286,1.0,1.0,88,0.00,,---,0.01,VWS V14.01,2013-08-14 15:41:00,
2013-08-14 11:46:00,65.9,61.9,29.96,WNW,286,1.0,1.0,87,0.00,,---,0.01,VWS V14.01,2013-08-14 15:46:00,
2013-08-14 11:51:00,65.7,62.7,29.96,WNW,286,1.0,1.0,90,0.00,,---,0.01,VWS V14.01,2013-08-14 15:51:00,
2013-08-14 11:56:00,65.6,60.3,29.96,NW,314,0.0,0.0,83,0.00,,---,0.01,VWS V14.01,2013-08-14 15:56:00,
2013-08-14 12:01:00,65.7,60.1,29.96,NW,314,0.0,0.0,82,0.00,,---,0.01,VWS V14.01,2013-08-14 16:01:00,
2013-08-14 12:06:00,66.4,60.7,29.96,NW,314,0.0,1.0,82,0.00,,---,0.01,VWS V14.01,2013-08-14 16:06:00,
2013-08-14 12:11:00,66.6,60.6,29.96,NW,314,0.0,1.0,81,0.00,,---,0.01,VWS V14.01,2013-08-14 16:11:00,
2013-08-14 12:16:00,66.5,59.8,29.96,NW,314,0.0,0.0,79,0.00,,---,0.01,VWS V14.01,2013-08-14 16:16:00,
2013-08-14 12:21:00,67.5,61.1,29.96,NW,307,0.0,1.0,80,0.00,,---,0.01,VWS V14.01,2013-08-14 16:21:00,
2013-08-14 12:26:00,68.0,60.2,29.96,South,185,0.0,3.0,76,0.00,,---,0.01,VWS V14.01,2013-08-14 16:26:00,
2013-08-14 12:31:00,67.2,59.8,29.96,SSE,153,1.0,1.0,77,0.00,,---,0.01,VWS V14.01,2013-08-14 16:31:00,
2013-08-14 12:36:00,69.2,63.1,29.95,SSW,204,0.0,1.0,81,0.00,,---,0.01,VWS V14.01,2013-08-14 16:36:00,
2013-08-14 12:41:00,67.7,60.6,29.96,SSW,204,0.0,2.0,78,0.00,,---,0.01,VWS V14.01,2013-08-14 16:41:00,
2013-08-14 12:46:00,68.5,62.1,29.96,SSW,208,0.0,1.0,80,0.00,,---,0.01,VWS V14.01,2013-08-14 16:46:00,
2013-08-14 12:51:00,68.0,63.0,29.96,SSW,208,0.0,2.0,84,0.00,,---,0.01,VWS V14.01,2013-08-14 16:51:00,
2013-08-14 12:56:00,67.1,61.8,29.96,SSW,208,0.0,1.0,83,0.00,,---,0.01,VWS V14.01,2013-08-14 16:56:00,
2013-08-14 13:01:00,67.7,64.7,29.95,SSW,208,1.0,1.0,90,0.00,,---,0.01,VWS V14.01,2013-08-14 17:01:00,
2013-08-14 13:06:00,68.5,62.1,29.95,SSW,208,0.0,1.0,80,0.00,,---,0.01,VWS V14.01,2013-08-14 17:06:00,
2013-08-14 13:11:00,67.2,61.5,29.95,WNW,286,1.0,1.0,82,0.00,,---,0.01,VWS V14.01,2013-08-14 17:11:00,
2013-08-14 13:16:00,66.6,62.3,29.95,WNW,287,2.0,3.0,86,0.00,,---,0.01,VWS V14.01,2013-08-14 17:16:00,
2013-08-14 13:21:00,66.6,62.3,29.95,West,278,1.0,2.0,86,0.00,,---,0.01,VWS V14.01,2013-08-14 17:21:00,
2013-08-14 13:26:00,66.8,62.2,29.96,West,270,1.0,3.0,85,0.00,,---,0.01,VWS V14.01,2013-08-14 17:26:00,
2013-08-14 13:31:00,66.6,60.9,29.95,WNW,300,0.0,1.0,82,0.00,,---,0.01,VWS V14.01,2013-08-14 17:31:00,
2013-08-14 13:36:00,67.2,62.5,29.95,NW,305,0.0,0.0,85,0.00,,---,0.01,VWS V14.01,2013-08-14 17:36:00,
2013-08-14 13:41:00,67.2,61.9,29.95,WNW,301,0.0,1.0,83,0.00,,---,0.01,VWS V14.01,2013-08-14 17:41:00,
2013-08-14 13:46:00,67.4,62.7,29.95,WNW,301,0.0,0.0,85,0.00,,---,0.01,VWS V14.01,2013-08-14 17:46:00,
2013-08-14 13:51:00,66.9,62.2,29.95,WNW,301,0.0,1.0,85,0.00,,---,0.01,VWS V14.01,2013-08-14 17:51:00,
2013-08-14 13:56:00,66.7,62.7,29.95,WNW,301,0.0,0.0,87,0.00,,---,0.01,VWS V14.01,2013-08-14 17:56:00,
2013-08-14 14:01:00,68.2,62.8,29.95,WNW,295,0.0,1.0,83,0.00,,---,0.01,VWS V14.01,2013-08-14 18:01:00,
2013-08-14 14:06:00,69.5,60.9,29.95,WNW,295,0.0,1.0,74,0.00,,---,0.01,VWS V14.01,2013-08-14 18:06:00,
2013-08-14 14:12:00,70.6,66.2,29.95,WNW,295,0.0,1.0,86,0.00,,---,0.01,VWS V14.01,2013-08-14 18:12:00,
2013-08-14 14:17:00,71.4,66.3,29.95,WNW,295,2.0,3.0,84,0.00,,---,0.01,VWS V14.01,2013-08-14 18:17:00,
2013-08-14 14:22:00,69.0,62.9,29.95,South,182,3.0,4.0,81,0.00,,---,0.01,VWS V14.01,2013-08-14 18:22:00,
2013-08-14 14:27:00,69.2,65.5,29.94,South,183,1.0,3.0,88,0.00,,---,0.01,VWS V14.01,2013-08-14 18:27:00,
2013-08-14 14:32:00,70.3,66.6,29.94,SSE,160,1.0,3.0,88,0.00,,---,0.01,VWS V14.01,2013-08-14 18:32:00,
2013-08-14 14:37:00,70.0,65.6,29.94,ESE,120,3.0,3.0,86,0.00,,---,0.01,VWS V14.01,2013-08-14 18:37:00,
2013-08-14 14:42:00,70.2,66.8,29.95,SE,125,1.0,4.0,89,0.00,,---,0.01,VWS V14.01,2013-08-14 18:42:00,
2013-08-14 14:47:00,70.3,65.2,29.94,SE,124,0.0,3.0,84,0.00,,---,0.01,VWS V14.01,2013-08-14 18:47:00,
2013-08-14 14:53:00,69.7,66.0,29.94,SE,128,1.0,2.0,88,0.00,,---,0.01,VWS V14.01,2013-08-14 18:53:00,
2013-08-14 14:58:00,69.8,66.1,29.94,SSE,165,3.0,3.0,88,0.00,,---,0.01,VWS V14.01,2013-08-14 18:58:00,
2013-08-14 15:03:00,70.3,65.9,29.94,SSE,156,3.0,5.0,86,0.00,,---,0.01,VWS V14.01,2013-08-14 19:03:00,
2013-08-14 15:08:00,69.1,64.4,29.94,SSE,159,1.0,3.0,85,0.00,,---,0.01,VWS V14.01,2013-08-14 19:08:00,
2013-08-14 15:13:00,69.5,65.8,29.94,SE,135,2.0,5.0,88,0.00,,---,0.01,VWS V14.01,2013-08-14 19:13:00,
2013-08-14 15:18:00,69.5,64.5,29.93,SSE,165,3.0,5.0,84,0.00,,---,0.01,VWS V14.01,2013-08-14 19:18:00,
2013-08-14 15:23:00,69.4,65.4,29.93,South,173,3.0,3.0,87,0.00,,---,0.01,VWS V14.01,2013-08-14 19:23:00,
2013-08-14 15:28:00,68.7,65.7,29.93,ESE,116,1.0,2.0,90,0.00,,---,0.01,VWS V14.01,2013-08-14 19:28:00,
2013-08-14 15:33:00,68.7,65.3,29.93,South,177,4.0,4.0,89,0.00,,---,0.01,VWS V14.01,2013-08-14 19:33:00,
2013-08-14 15:38:00,69.3,65.6,29.93,South,172,2.0,4.0,88,0.00,,---,0.01,VWS V14.01,2013-08-14 19:38:00,
2013-08-14 15:44:00,68.5,64.8,29.93,ESE,114,2.0,2.0,88,0.00,,---,0.01,VWS V14.01,2013-08-14 19:44:00,
2013-08-14 15:49:00,67.9,64.2,29.92,SE,133,1.0,2.0,88,0.00,,---,0.01,VWS V14.01,2013-08-14 19:49:00,
2013-08-14 15:54:00,67.4,64.7,29.93,SE,139,3.0,3.0,91,0.00,,---,0.01,VWS V14.01,2013-08-14 19:54:00,
2013-08-14 15:59:00,66.6,63.9,29.93,South,172,1.0,3.0,91,0.00,,---,0.01,VWS V14.01,2013-08-14 19:59:00,
2013-08-14 16:04:00,66.2,64.1,29.93,SE,139,2.0,3.0,93,0.00,,---,0.01,VWS V14.01,2013-08-14 20:04:00,
2013-08-14 16:09:00,65.7,63.6,29.93,South,174,2.0,4.0,93,0.00,,---,0.01,VWS V14.01,2013-08-14 20:09:00,
2013-08-14 16:14:00,65.9,64.1,29.92,South,173,1.0,1.0,94,0.00,,---,0.01,VWS V14.01,2013-08-14 20:14:00,
2013-08-14 16:21:00,66.4,64.9,29.93,South,184,1.0,1.0,95,0.00,,---,0.01,VWS V14.01,2013-08-14 20:21:00,
2013-08-14 16:27:00,66.0,63.9,29.93,SSW,202,0.0,1.0,93,0.00,,---,0.01,VWS V14.01,2013-08-14 20:27:00,
2013-08-14 16:32:00,65.8,64.3,29.93,South,183,2.0,2.0,95,0.00,,---,0.01,VWS V14.01,2013-08-14 20:32:00,
2013-08-14 16:37:00,67.2,65.7,29.93,SSE,163,1.0,3.0,95,0.00,,---,0.01,VWS V14.01,2013-08-14 20:37:00,
2013-08-14 16:42:00,67.3,65.2,29.92,ESE,120,1.0,2.0,93,0.00,,---,0.01,VWS V14.01,2013-08-14 20:42:00,
2013-08-14 16:47:00,66.2,63.8,29.92,ESE,119,3.0,5.0,92,0.00,,---,0.01,VWS V14.01,2013-08-14 20:47:00,
2013-08-14 16:52:00,65.5,64.0,29.92,SSE,156,2.0,3.0,95,0.00,,---,0.01,VWS V14.01,2013-08-14 20:52:00,
2013-08-14 16:57:00,65.2,63.7,29.93,South,173,2.0,4.0,95,0.00,,---,0.01,VWS V14.01,2013-08-14 20:57:00,
2013-08-14 17:02:00,65.1,63.9,29.92,SSE,158,2.0,3.0,96,0.00,,---,0.01,VWS V14.01,2013-08-14 21:02:00,
2013-08-14 17:07:00,64.5,63.0,29.92,SSE,156,1.0,2.0,95,0.00,,---,0.01,VWS V14.01,2013-08-14 21:07:00,
2013-08-14 17:12:00,64.3,63.4,29.93,South,183,1.0,2.0,97,0.00,,---,0.01,VWS V14.01,2013-08-14 21:12:00,
2013-08-14 17:17:00,64.2,63.3,29.93,SE,137,1.0,2.0,97,0.00,,---,0.01,VWS V14.01,2013-08-14 21:17:00,
2013-08-14 17:22:00,64.5,63.6,29.93,SSE,162,2.0,2.0,97,0.00,,---,0.01,VWS V14.01,2013-08-14 21:22:00,
2013-08-14 17:27:00,64.2,63.0,29.94,South,172,2.0,2.0,96,0.00,,---,0.01,VWS V14.01,2013-08-14 21:27:00,
2013-08-14 17:32:00,63.8,62.9,29.94,South,172,1.0,2.0,97,0.00,,---,0.01,VWS V14.01,2013-08-14 21:32:00,
2013-08-14 17:37:00,63.7,62.8,29.94,ESE,110,2.0,2.0,97,0.00,,---,0.01,VWS V14.01,2013-08-14 21:37:00,
2013-08-14 17:42:00,63.6,63.0,29.94,SE,128,0.0,0.0,98,0.00,,---,0.01,VWS V14.01,2013-08-14 21:42:00,
2013-08-14 17:47:00,63.3,62.7,29.94,SE,132,2.0,2.0,98,0.00,,---,0.01,VWS V14.01,2013-08-14 21:47:00,
2013-08-14 17:52:00,63.1,62.5,29.95,SE,132,2.0,2.0,98,0.00,,---,0.01,VWS V14.01,2013-08-14 21:52:00,
2013-08-14 17:57:00,63.0,62.4,29.95,East,95,0.0,0.0,98,0.00,,---,0.01,VWS V14.01,2013-08-14 21:57:00,
2013-08-14 18:02:00,62.9,62.3,29.95,SE,139,1.0,1.0,98,0.00,,---,0.01,VWS V14.01,2013-08-14 22:02:00,
2013-08-14 18:07:00,62.6,62.0,29.95,SE,133,2.0,2.0,98,0.02,,---,0.03,VWS V14.01,2013-08-14 22:07:00,
2013-08-14 18:12:00,62.3,62.0,29.94,ESE,112,5.0,6.0,99,0.04,,---,0.05,VWS V14.01,2013-08-14 22:12:00,
2013-08-14 18:17:00,62.0,61.7,29.94,ESE,123,2.0,4.0,99,0.04,,---,0.05,VWS V14.01,2013-08-14 22:17:00,
2013-08-14 18:22:00,61.8,61.8,29.95,East,101,10.0,11.0,100,0.04,,---,0.05,VWS V14.01,2013-08-14 22:22:00,
2013-08-14 18:27:00,61.5,61.5,29.95,SE,129,8.0,8.0,100,0.04,,---,0.05,VWS V14.01,2013-08-14 22:27:00,
2013-08-14 18:32:00,61.3,61.3,29.95,SE,133,9.0,10.0,100,0.04,,---,0.05,VWS V14.01,2013-08-14 22:32:00,
2013-08-14 18:37:00,60.7,60.7,29.95,SE,146,5.0,7.0,100,0.04,,---,0.05,VWS V14.01,2013-08-14 22:37:00,
2013-08-14 18:42:00,60.6,60.6,29.95,ESE,120,5.0,8.0,100,0.05,,---,0.06,VWS V14.01,2013-08-14 22:42:00,
2013-08-14 18:47:00,60.7,60.7,29.95,ESE,121,8.0,8.0,100,0.05,,---,0.06,VWS V14.01,2013-08-14 22:47:00,
2013-08-14 18:52:00,60.7,60.7,29.96,ESE,121,6.0,8.0,100,0.05,,---,0.06,VWS V14.01,2013-08-14 22:52:00,
2013-08-14 18:57:00,60.7,60.7,29.95,SE,129,8.0,9.0,100,0.05,,---,0.06,VWS V14.01,2013-08-14 22:57:00,
2013-08-14 19:02:00,60.9,60.9,29.95,SE,143,7.0,9.0,100,0.05,,---,0.06,VWS V14.01,2013-08-14 23:02:00,
2013-08-14 19:07:00,60.7,60.7,29.96,ESE,110,6.0,9.0,100,0.03,,---,0.06,VWS V14.01,2013-08-14 23:07:00,
2013-08-14 19:12:00,60.3,60.3,29.96,ESE,114,7.0,8.0,100,0.01,,---,0.06,VWS V14.01,2013-08-14 23:12:00,
2013-08-14 19:17:00,60.0,60.0,29.96,SE,144,7.0,7.0,100,0.01,,---,0.06,VWS V14.01,2013-08-14 23:17:00,
2013-08-14 19:18:00,60.0,60.0,29.96,ESE,104,3.0,8.0,100,0.01,,---,0.06,VWS V14.01,2013-08-14 23:18:00,
2013-08-14 19:23:00,59.7,59.7,29.96,ESE,117,3.0,7.0,100,0.01,,---,0.06,VWS V14.01,2013-08-14 23:23:00,
2013-08-14 19:28:00,59.6,59.6,29.96,ESE,107,2.0,8.0,100,0.01,,---,0.06,VWS V14.01,2013-08-14 23:28:00,
2013-08-14 19:33:00,59.4,59.4,29.96,ESE,106,5.0,7.0,100,0.01,,---,0.06,VWS V14.01,2013-08-14 23:33:00,
2013-08-14 19:38:00,59.3,59.3,29.96,ESE,116,5.0,6.0,100,0.01,,---,0.06,VWS V14.01,2013-08-14 23:38:00,
2013-08-14 19:43:00,59.4,59.4,29.97,SE,139,4.0,4.0,100,0.00,,---,0.06,VWS V14.01,2013-08-14 23:43:00,
2013-08-14 19:48:00,59.5,59.5,29.97,SE,141,5.0,5.0,100,0.00,,---,0.06,VWS V14.01,2013-08-14 23:48:00,
2013-08-14 19:53:00,59.6,59.6,29.97,SE,134,4.0,4.0,100,0.00,,---,0.06,VWS V14.01,2013-08-14 23:53:00,
2013-08-14 19:58:00,59.6,59.6,29.97,SE,128,5.0,5.0,100,0.00,,---,0.06,VWS V14.01,2013-08-14 23:58:00,
2013-08-14 20:03:00,59.5,59.5,29.97,ESE,121,6.0,6.0,100,0.00,,---,0.06,VWS V14.01,2013-08-15 00:03:00,
2013-08-14 20:08:00,59.4,59.4,29.97,East,93,5.0,8.0,100,0.00,,---,0.06,VWS V14.01,2013-08-15 00:08:00,
2013-08-14 20:13:00,59.4,59.4,29.98,ESE,122,7.0,7.0,100,0.00,,---,0.06,VWS V14.01,2013-08-15 00:13:00,
2013-08-14 20:18:00,59.5,59.5,29.98,SE,138,4.0,4.0,100,0.00,,---,0.06,VWS V14.01,2013-08-15 00:18:00,
2013-08-14 20:23:00,59.5,59.5,29.98,SE,141,4.0,5.0,100,0.00,,---,0.06,VWS V14.01,2013-08-15 00:23:00,
2013-08-14 20:28:00,59.3,59.3,29.98,SE,140,1.0,1.0,100,0.00,,---,0.06,VWS V14.01,2013-08-15 00:28:00,
2013-08-14 20:33:00,59.1,59.1,29.98,SE,140,1.0,2.0,100,0.00,,---,0.06,VWS V14.01,2013-08-15 00:33:00,
2013-08-14 20:38:00,59.0,59.0,29.98,SE,140,3.0,4.0,100,0.00,,---,0.06,VWS V14.01,2013-08-15 00:38:00,
2013-08-14 20:43:00,59.1,59.1,29.98,SE,140,2.0,4.0,100,0.00,,---,0.06,VWS V14.01,2013-08-15 00:43:00,
2013-08-14 20:48:00,58.9,58.9,29.98,SE,140,3.0,3.0,100,0.00,,---,0.06,VWS V14.01,2013-08-15 00:48:00,
2013-08-14 20:53:00,58.9,58.9,29.99,SE,139,4.0,4.0,100,0.00,,---,0.06,VWS V14.01,2013-08-15 00:53:00,
2013-08-14 20:58:00,58.7,58.7,29.99,SE,138,2.0,4.0,100,0.00,,---,0.06,VWS V14.01,2013-08-15 00:58:00,
2013-08-14 21:03:00,58.7,58.7,29.99,SE,138,3.0,3.0,100,0.00,,---,0.06,VWS V14.01,2013-08-15 01:03:00,
2013-08-14 21:08:00,58.6,58.6,29.99,SE,138,2.0,2.0,100,0.00,,---,0.06,VWS V14.01,2013-08-15 01:08:00,
2013-08-14 21:13:00,58.6,58.6,30.00,SE,138,3.0,3.0,100,0.00,,---,0.06,VWS V14.01,2013-08-15 01:13:00,
2013-08-14 21:18:00,58.7,58.7,30.00,SE,137,4.0,4.0,100,0.00,,---,0.06,VWS V14.01,2013-08-15 01:18:00,
2013-08-14 21:23:00,58.7,58.7,29.99,SE,137,3.0,3.0,100,0.00,,---,0.06,VWS V14.01,2013-08-15 01:23:00,
2013-08-14 21:28:00,58.6,58.6,30.00,ESE,116,5.0,5.0,100,0.00,,---,0.06,VWS V14.01,2013-08-15 01:28:00,
2013-08-14 21:33:00,58.4,58.4,30.00,ESE,118,3.0,3.0,100,0.00,,---,0.06,VWS V14.01,2013-08-15 01:33:00,
2013-08-14 21:38:00,58.2,58.2,30.00,ESE,118,2.0,2.0,100,0.00,,---,0.06,VWS V14.01,2013-08-15 01:38:00,
2013-08-14 21:43:00,58.1,58.1,30.00,SE,124,2.0,3.0,100,0.00,,---,0.06,VWS V14.01,2013-08-15 01:43:00,
2013-08-14 21:48:00,58.0,58.0,30.01,SE,124,5.0,5.0,100,0.00,,---,0.06,VWS V14.01,2013-08-15 01:48:00,
2013-08-14 21:53:00,58.1,58.1,30.01,SE,139,4.0,4.0,100,0.00,,---,0.06,VWS V14.01,2013-08-15 01:53:00,
2013-08-14 21:58:00,58.2,58.2,30.01,SE,131,6.0,6.0,100,0.00,,---,0.06,VWS V14.01,2013-08-15 01:58:00,
2013-08-14 22:03:00,58.1,58.1,30.01,ESE,110,6.0,6.0,100,0.00,,---,0.06,VWS V14.01,2013-08-15 02:03:00,
2013-08-14 22:08:00,58.1,58.1,30.02,SE,141,3.0,4.0,100,0.00,,---,0.06,VWS V14.01,2013-08-15 02:08:00,
2013-08-14 22:13:00,58.1,58.1,30.02,ESE,111,5.0,5.0,100,0.00,,---,0.06,VWS V14.01,2013-08-15 02:13:00,
2013-08-14 22:18:00,57.9,57.9,30.02,ESE,104,3.0,7.0,100,0.00,,---,0.06,VWS V14.01,2013-08-15 02:18:00,
2013-08-14 22:23:00,57.6,57.6,30.03,SE,138,5.0,5.0,100,0.00,,---,0.06,VWS V14.01,2013-08-15 02:23:00,
2013-08-14 22:28:00,57.0,57.0,30.03,SE,126,6.0,7.0,100,0.00,,---,0.06,VWS V14.01,2013-08-15 02:28:00,
2013-08-14 22:33:00,56.7,56.7,30.03,ESE,121,5.0,7.0,100,0.00,,---,0.06,VWS V14.01,2013-08-15 02:33:00,
2013-08-14 22:38:00,56.6,56.6,30.03,ESE,117,5.0,7.0,100,0.00,,---,0.06,VWS V14.01,2013-08-15 02:38:00,
2013-08-14 22:43:00,56.3,56.3,30.03,SSE,153,5.0,9.0,100,0.00,,---,0.06,VWS V14.01,2013-08-15 02:43:00,
2013-08-14 22:48:00,56.2,56.2,30.03,SE,132,3.0,3.0,100,0.00,,---,0.06,VWS V14.01,2013-08-15 02:48:00,
2013-08-14 22:53:00,56.0,56.0,30.03,ESE,114,2.0,5.0,100,0.00,,---,0.06,VWS V14.01,2013-08-15 02:53:00,
2013-08-14 22:58:00,56.3,56.3,30.03,ESE,120,3.0,5.0,100,0.00,,---,0.06,VWS V14.01,2013-08-15 02:58:00,
2013-08-14 23:03:00,56.2,56.2,30.04,ESE,104,4.0,4.0,100,0.00,,---,0.06,VWS V14.01,2013-08-15 03:03:00,
2013-08-14 23:08:00,56.2,56.2,30.04,ESE,117,3.0,5.0,100,0.00,,---,0.06,VWS V14.01,2013-08-15 03:08:00,
2013-08-14 23:13:00,56.3,56.3,30.04,ESE,113,3.0,3.0,100,0.00,,---,0.06,VWS V14.01,2013-08-15 03:13:00,
2013-08-14 23:18:00,56.3,56.3,30.03,SE,145,5.0,7.0,100,0.00,,---,0.06,VWS V14.01,2013-08-15 03:18:00,
2013-08-14 23:23:00,56.1,56.1,30.03,SE,126,7.0,8.0,100,0.00,,---,0.06,VWS V14.01,2013-08-15 03:23:00,
2013-08-14 23:28:00,56.0,56.0,30.04,SE,126,7.0,9.0,100,0.00,,---,0.06,VWS V14.01,2013-08-15 03:28:00,
2013-08-14 23:33:00,55.9,55.9,30.04,SE,131,5.0,6.0,100,0.00,,---,0.06,VWS V14.01,2013-08-15 03:33:00,
2013-08-14 23:38:00,55.9,55.9,30.04,ESE,123,3.0,3.0,100,0.00,,---,0.06,VWS V14.01,2013-08-15 03:38:00,
2013-08-14 23:43:00,56.0,56.0,30.04,SE,128,5.0,5.0,100,0.00,,---,0.06,VWS V14.01,2013-08-15 03:43:00,
2013-08-14 23:48:00,56.0,56.0,30.04,SE,128,2.0,3.0,100,0.00,,---,0.06,VWS V14.01,2013-08-15 03:48:00,
2013-08-14 23:53:00,56.1,56.1,30.04,SE,129,5.0,6.0,100,0.00,,---,0.06,VWS V14.01,2013-08-15 03:53:00,
2013-08-14 23:58:00,56.2,56.2,30.04,ESE,115,5.0,7.0,100,0.00,,---,0.06,VWS V14.01,2013-08-15 03:58:00,